WGS F2 (USA 204)

Last updated on Thu Oct 30 2025 00:02:48 GMT+0000 (Coordinated Universal Time)

1 34713U 09017A 25302.25531199 .00000079 00000+0 00000+0 0 9996 2 34713 0.0162 231.7828 0000283 289.1543 26.3709 1.00264655 43301
UTC large
Height (km)
Speed (km/s)
/
Latitude / Longitude
Inclination (degrees)
Orbital Period (minutes)
Azimuth
Elevation
Range (km)
Doppler Factor

Next 0 passes for location: London (51.5072 / 0.1276)

Sorry there are no passes over London.